[[{"header":{"parameterUnit":"m.s-1","parameterCategory":1,"la1":30.2992,"la2":30.254,"lo1":-89.0895,"lo2":-89.0443,"dy":0.0025,"dx":0.0025,"nx":19,"ny":19,"refTime":"2026-04-02T03:00:00:Z","depth":0,"parameterNumber":2,"parameterNumberName":"U-component_of_WINDS"},"data":[0,0,0,-3.8363,-3.8363,-3.8368,-3.8367,-3.8393,-3.8393,0,0,0,0,0,0,0,0,0,0,0,-3.8374,-3.8374,-3.8363,-3.8363,-3.8368,-3.8367,-3.8393,-3.8393,0,0,0,0,0,0,0,0,0,0,0,-3.8374,-3.8374,-3.8375,-3.8363,-3.8368,-3.8367,-3.8393,-3.8383,0,0,0,0,0,0,0,0,0,0,-3.8375,-3.8397,-3.8374,-3.8375,-3.8364,-3.8368,-3.8367,-3.8382,-3.8383,-3.84,0,-3.8417,0,-3.8406,-3.8396,-3.8397,0,0,0,-3.8355,-3.8396,-3.8386,-3.8375,-3.8364,-3.8368,-3.8363,-3.8382,-3.8384,-3.8402,-3.8417,-3.8418,-3.8406,-3.8397,-3.8397,-3.8518,-3.8519,0,0,-3.8355,-3.8381,-3.8385,-3.8388,-3.8388,-3.8363,-3.8363,-3.8383,-3.8402,-3.8417,-3.8418,-3.8407,-3.8397,-3.8397,-3.8517,-3.8519,0,0,0,-3.836,-3.8382,-3.8371,-3.8387,-3.8386,-3.8364,-3.8364,-3.8401,-3.8395,-3.8418,-3.8407,-3.8397,-3.8398,-3.8516,-3.8518,-3.8591,0,0,0,-3.8359,-3.8385,-3.8371,-3.8388,-3.8386,-3.8394,-3.8382,-3.8394,-3.8395,-3.8407,-3.8397,-3.8398,-3.8515,-3.8517,-3.8587,-3.8622,0,0,0,-3.837,-3.8386,-3.839,-3.8389,-3.8392,-3.8393,-3.8388,-3.8394,-3.8389,-3.8397,-3.8398,-3.8514,-3.8517,-3.8583,-3.8616,-3.8661,0,0,0,-3.8389,-3.8457,-3.8392,-3.8464,-3.8392,-3.8438,-3.8387,-3.8421,-3.8436,-3.8398,-3.8515,-3.8518,-3.8582,-3.8612,-3.8658,-3.8705,-3.8727,0,0,-3.849,-3.847,-3.851,-3.8452,-3.8516,-3.8435,-3.851,-3.85,-3.8477,-3.8506,-3.8508,-3.8589,-3.8615,-3.8661,-3.8842,-3.886,0,0,0,-3.8551,-3.858,-3.8592,-3.8607,-3.8599,-3.8595,-3.857,-3.8565,-3.8588,-3.8497,-3.8616,-3.8632,-3.8657,-3.8679,-3.8694,-3.8714,-3.8529,-3.8528,-3.8528,-3.8735,-3.8699,-3.8762,-3.8728,-3.8743,-3.8714,-3.8723,-3.8713,-3.8674,-3.8703,-3.8712,-3.8826,-3.8852,-3.8863,-3.8885,-3.8734,-3.8734,-3.8734,-3.8735,-3.888,-3.8915,-3.886,-3.8901,-3.8864,-3.8899,-3.8874,-3.8845,-3.8872,-3.8817,-3.8838,-3.8781,-3.8884,-3.8901,-3.874,-3.8739,-3.8738,-3.8738,-3.8737,-3.8996,-3.9007,-3.8999,-3.9015,-3.9032,-3.8994,-3.9022,-3.8987,-3.8954,-3.8974,-3.8979,-3.8978,-3.8972,-3.8979,-3.8979,-3.898,-3.898,-3.898,-3.8981,-3.912,-3.9109,-3.9136,-3.9132,-3.9136,-3.9136,-3.9107,-3.911,-3.9105,-3.9077,-3.9077,-3.9035,-3.89,-3.8867,-3.8987,-3.8986,-3.8985,-3.8984,-3.8984,-3.9282,-3.9239,-3.9281,-3.9285,-3.9276,-3.9294,-3.9248,-3.9257,-3.9254,-3.9269,-3.9222,-3.9128,-3.9105,-3.9093,-3.9066,-3.9229,-3.9229,-3.9229,-3.9229,-3.938,-3.9364,-3.9399,-3.9407,-3.941,-3.9372,-3.9421,-3.9398,-3.9368,-3.9364,-3.9335,-3.9295,-3.9284,-3.9268,-3.9252,-3.9226,-3.9427,-3.9427,-3.9427,-3.9477,-3.946,-3.9508,-3.9477,-3.9466,-3.9458,-3.9503,-3.9514,-3.9471,-3.9434,-3.936,-3.9352,-3.9287,-3.9268,-3.9231,-3.9207,-3.9158,0,0]},{"header":{"parameterUnit":"m.s-1","parameterCategory":1,"la1":30.2992,"la2":30.254,"lo1":-89.0895,"lo2":-89.0443,"dy":0.0025,"dx":0.0025,"nx":19,"ny":19,"refTime":"2026-04-02T03:00:00:Z","depth":0,"parameterNumber":3,"parameterNumberName":"V-component_of_WINDS"},"data":[0,0,0,2.2536,2.2538,2.2648,2.2649,2.2757,2.2758,0,0,0,0,0,0,0,0,0,0,0,2.2484,2.2484,2.2536,2.2538,2.2648,2.2649,2.2757,2.2758,0,0,0,0,0,0,0,0,0,0,0,2.2484,2.2484,2.2484,2.2539,2.2648,2.2649,2.2757,2.2686,0,0,0,0,0,0,0,0,0,0,2.2584,2.2517,2.2484,2.2484,2.2539,2.2648,2.2649,2.2683,2.269,2.2694,0,2.2691,0,2.2726,2.2763,2.2763,0,0,0,2.2553,2.251,2.2558,2.2484,2.254,2.2648,2.2603,2.2687,2.2695,2.2703,2.2693,2.2698,2.2728,2.2764,2.2764,2.2735,2.2734,0,0,2.2547,2.2493,2.2552,2.2562,2.2543,2.2599,2.2606,2.2693,2.2678,2.2694,2.2701,2.273,2.2764,2.2765,2.2735,2.2734,0,0,0,2.252,2.2488,2.2535,2.2557,2.2579,2.2602,2.261,2.2675,2.2694,2.2703,2.2731,2.2765,2.2766,2.2736,2.2735,2.2641,0,0,0,2.2517,2.2473,2.2531,2.2499,2.2577,2.2628,2.2589,2.2688,2.27,2.273,2.2765,2.2766,2.2737,2.2736,2.2646,2.2606,0,0,0,2.2484,2.2469,2.2478,2.2496,2.2541,2.2628,2.2653,2.2692,2.2716,2.2764,2.2767,2.2738,2.2736,2.265,2.2613,2.2583,0,0,0,2.2433,2.2393,2.2475,2.2442,2.254,2.2569,2.2653,2.2678,2.2707,2.2765,2.2737,2.2735,2.2651,2.2618,2.2587,2.2547,2.2526,0,0,2.2353,2.2382,2.2367,2.2443,2.2444,2.2556,2.2544,2.2622,2.2676,2.2712,2.2712,2.2644,2.2614,2.2584,2.2423,2.2406,0,0,0,2.2323,2.2311,2.2323,2.2348,2.2407,2.2454,2.254,2.2569,2.2602,2.2683,2.2627,2.261,2.2595,2.2579,2.2564,2.2554,2.2725,2.2725,2.2726,2.2133,2.2204,2.2183,2.2267,2.229,2.2379,2.2405,2.2459,2.2524,2.2509,2.2521,2.2415,2.2393,2.2383,2.2372,2.2505,2.2505,2.2505,2.2505,2.2022,2.2017,2.2104,2.2115,2.219,2.2201,2.2284,2.233,2.2351,2.2412,2.2402,2.2463,2.2361,2.2355,2.2498,2.2499,2.25,2.2501,2.2501,2.1906,2.1916,2.1952,2.1995,2.2021,2.2107,2.2123,2.2191,2.2255,2.2245,2.2265,2.2267,2.2277,2.225,2.2249,2.2249,2.2249,2.2248,2.2248,2.1772,2.1815,2.182,2.1877,2.1903,2.1944,2.2032,2.2059,2.2106,2.2155,2.2155,2.2221,2.2338,2.2366,2.2243,2.2244,2.2245,2.2245,2.2245,2.1634,2.1676,2.1683,2.1708,2.1782,2.1803,2.1889,2.1937,2.1969,2.1975,2.2043,2.2118,2.2153,2.2165,2.2189,2.2028,2.2028,2.2028,2.2028,2.1536,2.156,2.1583,2.1618,2.166,2.1739,2.1745,2.1813,2.189,2.1914,2.1947,2.1984,2.1994,2.2023,2.2039,2.2062,2.1872,2.1872,2.1872,2.1456,2.1487,2.1479,2.1554,2.1617,2.1669,2.1677,2.1714,2.181,2.1867,2.1935,2.1941,2.2002,2.2018,2.2076,2.2099,2.2143,0,0]}]]